Simultaneous Nadir Overpasses (SNOs) Predictions

Prediction of SNOs near equator between NOAA-19 and NPP Satellite Orbit:

Table of predicted SNOs near equator for the next 14.0 days since TLE Epoch: 11/10/2012
Index Date (NOAA-19) Time (NOAA-19) NOAA-19 Lat,Lon Date (NPP) Time (NPP) NPP Lat,Lon Distance(km) Time Diff (sec)
1 11/16/2012 09:23:03 -29.99,-122.37 11/16/2012 09:16:09 -29.78,-123.30 92.04 414
2 11/16/2012 10:14:03 29.95, 44.89 11/16/2012 10:06:57 29.77, 44.01 87.26 426
3 11/16/2012 11:05:08 -29.99,-147.89 11/16/2012 10:57:40 -29.85,-148.69 78.37 448
4 11/16/2012 11:56:08 29.95, 19.36 11/16/2012 11:48:28 29.83, 18.61 73.65 460
5 11/16/2012 12:47:13 -29.99,-173.41 11/16/2012 12:39:10 -29.85,-174.06 64.68 483
6 11/16/2012 13:38:13 29.96, -6.16 11/16/2012 13:29:58 29.84, -6.76 59.90 495
7 11/16/2012 14:29:
